CW5398 Weather Reports


Display with metric or nautical units.
time (UTC)temp
F
wind
direction
speed
MPH
gust
MPH
rain 1hr
in
rain 24hr
in
rain mn
in
humidity
%
barometer
mb
20260905122555 49 304 0.0 0.0 0.00 0.01 0.00 94 1016.5
20260905121516 49 304 0.0 0.0 0.00 0.01 0.00 94 1016.5
20260905120535 49 304 0.0 0.0 0.00 0.01 0.00 94 1016.5
20260905115516 49 304 0.0 0.0 0.00 0.01 0.00 94 1016.5
20260905114535 49 304 0.0 0.0 0.00 0.01 0.00 94 1016.5
20260905113536 49 304 0.0 0.0 0.00 0.01 0.00 93 1016.5
20260905112515 49 304 0.0 0.0 0.00 0.01 0.00 93 1016.5
20260905111515 49 304 0.0 0.0 0.00 0.01 0.00 93 1016.5
20260905110516 49 304 0.0 0.0 0.00 0.01 0.00 93 1016.5
20260905105515 49 304 0.0 0.0 0.00 0.01 0.00 93 1016.5
20260905104515 49 304 0.0 0.0 0.00 0.01 0.00 92 1016.5
20260905103515 49 304 0.0 0.0 0.00 0.01 0.00 92 1016.5
20260905102515 49 304 0.0 0.0 0.00 0.01 0.00 92 1016.5
20260905101555 50 304 0.0 0.0 0.00 0.01 0.00 92 1016.5
20260905100535 50 304 0.0 0.0 0.00 0.01 0.00 92 1016.5
20260905095517 50 304 0.0 0.0 0.00 0.01 0.00 92 1016.5
20260905094517 50 304 0.0 0.0 0.00 0.01 0.00 91 1016.5
20260905093537 50 304 0.0 0.0 0.00 0.01 0.00 91 1016.6
20260905092558 51 304 0.0 0.0 0.00 0.01 0.00 90 1016.4
20260905091517 51 304 0.0 0.0 0.00 0.01 0.00 90 1016.4
20260905090517 51 304 0.0 0.0 0.00 0.01 0.00 90 1016.4
20260905085537 52 304 0.0 0.0 0.00 0.01 0.00 90 1016.3
20260905084517 52 304 0.0 0.0 0.00 0.01 0.00 90 1016.3
20260905082517 52 304 0.0 0.0 0.00 0.01 0.00 89 1016.2
20260905081517 52 304 0.0 0.0 0.00 0.01 0.00 89 1016.2
20260905080517 52 304 0.0 0.0 0.00 0.01 0.00 89 1016.2
20260905075517 52 304 0.0 0.0 0.00 0.01 0.00 88 1016.1
20260905074517 52 304 0.0 0.0 0.00 0.01 0.00 88 1016.1
20260905073537 52 304 0.0 0.0 0.00 0.01 0.00 87 1016.1
20260905072517 53 304 0.0 0.0 0.00 0.01 0.00 87 1016.0
20260905071517 53 304 0.0 0.0 0.00 0.01 0.00 86 1016.0
20260905070537 53 304 0.0 0.0 0.00 0.01 0.00 87 1016.0
20260905065516 53 304 0.0 0.0 0.00 0.01 0.01 87 1015.8
20260905064517 53 304 0.0 0.0 0.00 0.01 0.01 86 1015.8
20260905063517 53 304 0.0 0.0 0.00 0.01 0.01 86 1015.5
20260905062516 53 304 0.0 0.0 0.00 0.01 0.01 86 1015.5
20260905061517 53 304 0.0 0.0 0.00 0.01 0.01 85 1015.5
20260905060536 53 304 0.0 0.0 0.00 0.01 0.01 85 1015.6
20260905055516 53 304 0.0 0.0 0.00 0.01 0.01 85 1015.6
20260905054536 53 304 0.0 0.0 0.00 0.01 0.01 84 1015.6
20260905053516 54 304 0.0 0.0 0.00 0.01 0.01 84 1015.5
20260905052516 54 304 0.0 0.0 0.00 0.01 0.01 84 1015.5
20260905051536 54 304 0.0 0.0 0.00 0.01 0.01 84 1015.5
20260905050516 54 304 0.0 0.0 0.00 0.01 0.01 84 1015.7
20260905045516 54 304 0.0 0.0 0.00 0.01 0.01 83 1015.8
20260905044516 54 304 0.0 0.0 0.00 0.01 0.01 83 1015.8
20260905043517 55 304 0.0 0.0 0.00 0.01 0.01 82 1015.9
20260905042516 55 304 0.0 0.0 0.00 0.01 0.01 81 1015.7
20260905041516 56 304 0.0 0.0 0.00 0.01 0.01 81 1015.7
20260905040516 56 304 0.0 0.0 0.00 0.01 0.01 81 1015.5
20260905035516 57 304 0.0 0.0 0.00 0.01 0.01 80 1015.4
20260905034536 57 304 0.0 0.0 0.00 0.01 0.01 78 1015.4
20260905033517 58 304 0.0 0.0 0.00 0.01 0.01 78 1015.3
20260905032516 58 304 0.0 0.0 0.00 0.01 0.01 77 1015.2
20260905031516 59 304 0.0 0.0 0.00 0.01 0.01 77 1015.2
20260905030516 59 304 0.0 0.0 0.00 0.01 0.01 76 1015.1
20260905025536 60 304 0.0 0.0 0.00 0.01 0.01 74 1014.9
20260905024516 61 304 0.0 0.0 0.00 0.01 0.01 73 1014.9
20260905023516 61 304 0.0 0.0 0.00 0.01 0.01 72 1014.9
20260905022516 62 304 0.0 0.0 0.00 0.01 0.01 70 1014.9
20260905021536 62 304 0.0 0.0 0.00 0.01 0.01 70 1014.9
20260905020516 62 304 0.0 0.0 0.00 0.01 0.01 69 1014.9
20260905015536 62 304 0.0 0.0 0.00 0.01 0.01 69 1014.9
20260905014516 62 304 0.0 0.0 0.00 0.01 0.01 69 1014.9
20260905013516 62 304 0.0 0.0 0.00 0.01 0.01 68 1014.9
20260905012516 62 304 0.0 0.0 0.00 0.01 0.01 69 1014.7
20260905011516 62 315 0.0 3.0 0.00 0.01 0.01 70 1014.7
20260905010521 62 315 2.0 5.0 0.00 0.01 0.01 69 1014.5
20260905005516 63 315 0.0 3.0 0.00 0.01 0.01 68 1014.4
20260905004536 64 315 1.0 5.0 0.00 0.01 0.01 66 1014.4
20260905003515 65 315 0.0 2.0 0.00 0.01 0.01 60 1014.3
20260905002516 66 315 0.0 1.0 0.00 0.01 0.01 60 1014.2
20260905001515 66 315 0.0 1.0 0.00 0.01 0.01 57 1014.2
20260905000515 66 315 0.0 4.0 0.00 0.01 0.01 53 1014.0
20260904235515 66 315 1.0 4.0 0.00 0.01 0.01 54 1013.9
20260904234536 66 315 0.0 1.0 0.00 0.01 0.01 54 1013.9
20260904233515 67 315 1.0 5.0 0.00 0.01 0.01 52 1013.9
20260904232516 67 315 2.0 5.0 0.00 0.01 0.01 53 1013.8
20260904231515 67 315 1.0 6.0 0.00 0.01 0.01 55 1013.8
20260904230515 67 315 1.0 7.0 0.00 0.01 0.01 55 1013.7
20260904225515 68 270 0.0 4.0 0.00 0.01 0.01 55 1013.5
20260904224515 67 270 1.0 5.0 0.00 0.01 0.01 53 1013.5
20260904223515 67 270 1.0 6.0 0.00 0.01 0.01 53 1013.5
20260904222515 67 270 2.0 7.0 0.00 0.01 0.01 56 1013.7
20260904221515 67 248 3.0 9.0 0.00 0.01 0.01 54 1013.7
20260904220515 67 248 2.0 6.0 0.00 0.01 0.01 56 1013.8
20260904215515 68 248 3.0 8.0 0.00 0.01 0.01 55 1013.9
20260904214515 68 180 3.0 9.0 0.00 0.01 0.01 59 1013.9
20260904213515 67 203 1.0 6.0 0.00 0.01 0.01 60 1013.9
20260904212515 67 225 3.0 7.0 0.00 0.01 0.01 56 1013.8
20260904211515 67 203 2.0 7.0 0.00 0.01 0.01 59 1013.8
20260904210517 66 203 4.0 9.0 0.00 0.01 0.01 62 1013.8
20260904205517 66 180 1.0 3.0 0.00 0.01 0.01 67 1013.8
20260904204517 65 180 1.0 5.0 0.00 0.01 0.01 66 1013.8
20260904203517 65 203 2.0 7.0 0.00 0.01 0.01 67 1013.8
20260904202517 63 203 2.0 7.0 0.00 0.01 0.01 69 1013.7
20260904201517 62 203 3.0 9.0 0.00 0.01 0.01 69 1013.7
20260904200517 62 203 3.0 8.0 0.00 0.01 0.01 68 1013.7
20260904195517 63 203 3.0 9.0 0.00 0.01 0.01 68 1013.7
20260904194517 64 270 2.0 5.0 0.00 0.01 0.01 68 1013.7
20260904193517 64 248 1.0 6.0 0.00 0.01 0.01 67 1013.5
20260904192517 64 248 0.0 1.0 0.00 0.01 0.01 70 1013.4
20260904191537 63 248 1.0 3.0 0.00 0.01 0.01 69 1013.4
20260904190517 64 248 1.0 5.0 0.00 0.01 0.01 71 1013.4
20260904185517 63 242 0.0 0.0 0.00 0.01 0.01 74 1013.3
20260904184517 62 248 0.0 2.0 0.00 0.01 0.01 72 1013.3
20260904183517 62 248 0.0 5.0 0.00 0.01 0.01 75 1013.2
20260904182517 62 243 0.0 0.0 0.00 0.01 0.01 75 1013.3
20260904181517 62 243 0.0 0.0 0.00 0.01 0.01 76 1013.3
20260904180517 62 248 1.0 5.0 0.00 0.01 0.01 78 1013.2
20260904175517 60 248 1.0 3.0 0.00 0.01 0.01 77 1013.1
20260904174517 60 248 0.0 2.0 0.00 0.01 0.01 78 1013.1
20260904173516 60 242 0.0 0.0 0.00 0.01 0.01 78 1013.3
20260904172517 60 242 0.0 0.0 0.00 0.01 0.01 80 1013.3
20260904171517 59 248 1.0 3.0 0.00 0.01 0.01 86 1013.3
20260904170517 58 248 1.0 3.0 0.00 0.01 0.01 87 1013.3
20260904165516 57 242 0.0 0.0 0.00 0.01 0.01 94 1013.3
20260904164516 56 242 0.0 0.0 0.00 0.01 0.01 97 1013.3
20260904163516 55 242 0.0 0.0 0.00 0.01 0.01 98 1013.3
20260904162516 55 248 0.0 1.0 0.00 0.01 0.01 99 1013.3
20260904161516 55 242 0.0 0.0 0.00 0.01 0.01 99 1013.3
20260904160516 54 242 0.0 0.0 0.01 0.01 0.01 99 1013.2
20260904155516 54 242 0.0 0.0 0.01 0.01 0.01 99 1013.0
20260904154536 53 242 0.0 0.0 0.01 0.01 0.01 99 1013.0
20260904153516 52 242 0.0 0.0 0.01 0.01 0.01 99 1012.8
20260904152516 52 242 0.0 0.0 0.01 0.01 0.01 99 1012.8
20260904151516 51 242 0.0 0.0 0.01 0.01 0.01 98 1012.8
20260904150536 51 248 0.0 1.0 0.00 0.00 0.00 98 1012.5
20260904145516 51 242 0.0 0.0 0.00 0.00 0.00 98 1012.7
20260904144516 51 242 0.0 0.0 0.00 0.00 0.00 98 1012.7
20260904143536 51 242 0.0 0.0 0.00 0.00 0.00 98 1012.7
20260904142518 50 242 0.0 0.0 0.00 0.00 0.00 98 1012.5
20260904141516 50 242 0.0 0.0 0.00 0.00 0.00 98 1012.5
20260904140516 50 242 0.0 0.0 0.00 0.00 0.00 98 1012.3
20260904135516 50 242 0.0 0.0 0.00 0.00 0.00 98 1011.9
20260904134516 50 242 0.0 0.0 0.00 0.00 0.00 98 1011.9
20260904133516 50 242 0.0 0.0 0.00 0.00 0.00 98 1011.7
20260904132516 50 248 0.0 2.0 0.00 0.00 0.00 98 1011.6
20260904131536 50 242 0.0 0.0 0.00 0.00 0.00 98 1011.6
20260904130536 50 242 0.0 0.0 0.00 0.00 0.00 98 1011.3
20260904125516 50 242 0.0 0.0 0.00 0.00 0.00 98 1011.3
20260904124516 50 242 0.0 0.0 0.00 0.00 0.00 97 1011.3
20260904123536 50 242 0.0 0.0 0.00 0.00 0.00 98 1011.2